DLH16PY EGLL-LFPG

Flight info

Callsign DLH16PY
Flight time 0h 36m
Altitude 25000
Route MODMI M185 MID UL612 BOGNA DCT HARDY UM605 BIBAX
Aircraft A20N/M-SDE2E3FGHIRWXY/LB1

Departure

Time 2026-05-04 23:12
Airport London Heathrow Airport (EGLL)

Arrival

Time 2026-05-04 23:49
Airport Charles de Gaulle International Airport (LFPG)
Time Latitude Longitude Altitude Speed Heading
2026-05-04 22:42 51.47115 -0.48002 87 ft 0 kts 274°
2026-05-04 23:02 51.47114 -0.47996 87 ft 2 kts 274°
2026-05-04 23:03 51.47113 -0.47972 87 ft 2 kts 273°
2026-05-04 23:03 51.47113 -0.47949 87 ft 2 kts 274°
2026-05-04 23:03 51.47112 -0.47924 87 ft 2 kts 274°
2026-05-04 23:03 51.47111 -0.47902 87 ft 1 kts 273°
2026-05-04 23:04 51.47111 -0.47888 87 ft 1 kts 247°
2026-05-04 23:04 51.47121 -0.47872 87 ft 1 kts 190°
2026-05-04 23:04 51.47127 -0.47872 87 ft 1 kts 174°
2026-05-04 23:04 51.47131 -0.47873 87 ft 0 kts 179°
2026-05-04 23:07 51.47116 -0.47872 87 ft 4 kts 177°
2026-05-04 23:07 51.47065 -0.47867 87 ft 9 kts 179°
2026-05-04 23:08 51.46984 -0.47869 86 ft 13 kts 180°
2026-05-04 23:08 51.46882 -0.47869 86 ft 13 kts 180°
2026-05-04 23:08 51.46794 -0.47868 86 ft 12 kts 180°
2026-05-04 23:08 51.46750 -0.47899 85 ft 5 kts 190°
2026-05-04 23:09 51.46697 -0.47870 85 ft 10 kts 174°
2026-05-04 23:09 51.46655 -0.47942 85 ft 12 kts 264°
2026-05-04 23:09 51.46652 -0.48109 85 ft 17 kts 269°
2026-05-04 23:09 51.46653 -0.48329 85 ft 20 kts 270°
2026-05-04 23:10 51.46651 -0.48550 85 ft 18 kts 269°
2026-05-04 23:10 51.46650 -0.48691 85 ft 8 kts 265°
2026-05-04 23:10 51.46610 -0.48762 85 ft 2 kts 199°
2026-05-04 23:10 51.46609 -0.48762 85 ft 0 kts 199°
2026-05-04 23:11 51.46603 -0.48765 85 ft 3 kts 198°
2026-05-04 23:11 51.46556 -0.48786 84 ft 10 kts 194°
2026-05-04 23:11 51.46485 -0.48747 84 ft 13 kts 123°
2026-05-04 23:11 51.46477 -0.48648 84 ft 8 kts 89°
2026-05-04 23:12 51.46479 -0.48485 84 ft 32 kts 88°
2026-05-04 23:12 51.46480 -0.47658 85 ft 112 kts 90°
2026-05-04 23:12 51.46477 -0.46092 341 ft 148 kts 89°
2026-05-04 23:12 51.46467 -0.44589 1106 ft 143 kts 86°
2026-05-04 23:13 51.46498 -0.42942 1686 ft 152 kts 84°
2026-05-04 23:13 51.46420 -0.41221 2354 ft 168 kts 101°
2026-05-04 23:13 51.45886 -0.39468 2939 ft 187 kts 126°
2026-05-04 23:13 51.44849 -0.38042 3524 ft 207 kts 143°
2026-05-04 23:14 51.43523 -0.36906 4039 ft 231 kts 157°
2026-05-04 23:14 51.41950 -0.35963 4709 ft 250 kts 160°
2026-05-04 23:14 51.40208 -0.35486 5342 ft 269 kts 185°
2026-05-04 23:14 51.38387 -0.36298 5816 ft 275 kts 206°
2026-05-04 23:15 51.36713 -0.37728 5975 ft 277 kts 211°
2026-05-04 23:15 51.35024 -0.39231 5975 ft 277 kts 209°
2026-05-04 23:15 51.33297 -0.40668 6085 ft 282 kts 207°
2026-05-04 23:15 51.31541 -0.42054 6879 ft 287 kts 207°
2026-05-04 23:16 51.29774 -0.43461 8029 ft 285 kts 207°
2026-05-04 23:16 51.28025 -0.44844 8991 ft 287 kts 205°
2026-05-04 23:16 51.26114 -0.45718 9854 ft 291 kts 179°
2026-05-04 23:16 51.24208 -0.44932 10689 ft 292 kts 149°
2026-05-04 23:17 51.22567 -0.42901 11269 ft 306 kts 138°
2026-05-04 23:17 51.20946 -0.40615 11725 ft 324 kts 138°
2026-05-04 23:17 51.19182 -0.38204 12164 ft 342 kts 140°
2026-05-04 23:17 51.17342 -0.35789 12806 ft 351 kts 140°
2026-05-04 23:18 51.15425 -0.33344 13602 ft 354 kts 141°
2026-05-04 23:18 51.13504 -0.30932 14377 ft 358 kts 141°
2026-05-04 23:18 51.11534 -0.28484 15145 ft 361 kts 141°
2026-05-04 23:18 51.09567 -0.26056 15894 ft 365 kts 142°
2026-05-04 23:19 51.07550 -0.23578 16612 ft 368 kts 141°
2026-05-04 23:19 51.05506 -0.21075 17329 ft 372 kts 141°
2026-05-04 23:19 51.03473 -0.18590 18014 ft 375 kts 141°
2026-05-04 23:19 51.01391 -0.16048 18710 ft 378 kts 141°
2026-05-04 23:20 50.99326 -0.13526 19363 ft 381 kts 142°
2026-05-04 23:20 50.97207 -0.10941 20032 ft 385 kts 142°
2026-05-04 23:20 50.95102 -0.08379 20675 ft 388 kts 142°
2026-05-04 23:20 50.92946 -0.05760 21305 ft 391 kts 142°
2026-05-04 23:21 50.90802 -0.03161 21914 ft 394 kts 143°
2026-05-04 23:21 50.88629 -0.00536 22530 ft 397 kts 143°
2026-05-04 23:21 50.86413 0.02127 23133 ft 400 kts 143°
2026-05-04 23:21 50.84214 0.04770 23723 ft 403 kts 143°
2026-05-04 23:22 50.81967 0.07471 24308 ft 406 kts 143°
2026-05-04 23:22 50.79705 0.10193 24811 ft 410 kts 143°
2026-05-04 23:22 50.77455 0.12898 24987 ft 412 kts 143°
2026-05-04 23:22 50.75166 0.15647 24988 ft 411 kts 144°
2026-05-04 23:23 50.72913 0.18351 24990 ft 411 kts 143°
2026-05-04 23:23 50.70631 0.21085 24987 ft 411 kts 143°
2026-05-04 23:23 50.68382 0.23781 24989 ft 411 kts 143°
2026-05-04 23:23 50.66101 0.26510 24989 ft 410 kts 143°
2026-05-04 23:24 50.63850 0.29199 24991 ft 411 kts 143°
2026-05-04 23:24 50.61563 0.31929 24988 ft 411 kts 143°
2026-05-04 23:24 50.59308 0.34618 24988 ft 411 kts 143°
2026-05-04 23:24 50.57018 0.37346 24988 ft 411 kts 143°
2026-05-04 23:25 50.54760 0.40034 24986 ft 412 kts 143°
2026-05-04 23:25 50.52465 0.42763 24988 ft 412 kts 143°
2026-05-04 23:25 50.50202 0.45449 24990 ft 412 kts 143°
2026-05-04 23:25 50.47907 0.48166 24987 ft 411 kts 143°
2026-05-04 23:26 50.45663 0.50876 24985 ft 411 kts 142°
2026-05-04 23:26 50.43425 0.53702 24984 ft 411 kts 141°
2026-05-04 23:26 50.41228 0.56501 24981 ft 411 kts 141°
2026-05-04 23:26 50.38995 0.59334 24980 ft 411 kts 141°
2026-05-04 23:27 50.36793 0.62114 24980 ft 411 kts 141°
2026-05-04 23:27 50.34554 0.64931 24978 ft 411 kts 141°
2026-05-04 23:27 50.32338 0.67721 24977 ft 411 kts 142°
2026-05-04 23:27 50.30098 0.70542 24974 ft 411 kts 142°
2026-05-04 23:28 50.27889 0.73318 24974 ft 412 kts 142°
2026-05-04 23:28 50.25642 0.76134 24978 ft 412 kts 142°
2026-05-04 23:28 50.23427 0.78900 24977 ft 412 kts 142°
2026-05-04 23:28 50.21176 0.81707 24975 ft 412 kts 142°
2026-05-04 23:29 50.18956 0.84471 24972 ft 413 kts 142°
2026-05-04 23:29 50.16704 0.87274 24972 ft 412 kts 142°
2026-05-04 23:29 50.14485 0.90031 24971 ft 412 kts 142°
2026-05-04 23:29 50.12235 0.92825 24971 ft 412 kts 142°
2026-05-04 23:30 50.10015 0.95574 24970 ft 412 kts 141°
2026-05-04 23:30 50.07737 0.98307 24970 ft 412 kts 144°
2026-05-04 23:30 50.05383 1.00761 24969 ft 412 kts 148°
2026-05-04 23:30 50.02884 1.02981 24968 ft 412 kts 152°
2026-05-04 23:31 50.00343 1.04937 24960 ft 412 kts 154°
2026-05-04 23:31 49.97743 1.06895 24963 ft 412 kts 154°
2026-05-04 23:31 49.96576 1.07772 24962 ft 412 kts 154°
2026-05-04 23:31 49.94913 1.09021 24941 ft 412 kts 154°
2026-05-04 23:32 49.92326 1.10961 24585 ft 410 kts 154°
2026-05-04 23:32 49.89806 1.12848 24147 ft 407 kts 154°
2026-05-04 23:32 49.87281 1.14729 23668 ft 405 kts 153°
2026-05-04 23:32 49.84687 1.16659 23176 ft 414 kts 153°
2026-05-04 23:33 49.82026 1.18643 22643 ft 432 kts 153°
2026-05-04 23:33 49.79341 1.20646 22114 ft 434 kts 153°
2026-05-04 23:33 49.76620 1.22673 21565 ft 432 kts 153°
2026-05-04 23:33 49.73954 1.24657 21041 ft 429 kts 153°
2026-05-04 23:34 49.71267 1.26658 20497 ft 426 kts 153°
2026-05-04 23:34 49.68636 1.28613 19959 ft 423 kts 153°
2026-05-04 23:34 49.65981 1.30585 19411 ft 420 kts 153°
2026-05-04 23:34 49.63381 1.32513 19033 ft 418 kts 153°
2026-05-04 23:35 49.60748 1.34464 18952 ft 418 kts 153°
2026-05-04 23:35 49.58153 1.36384 18940 ft 419 kts 153°
2026-05-04 23:35 49.55515 1.38335 18928 ft 419 kts 153°
2026-05-04 23:35 49.52913 1.40255 18928 ft 418 kts 153°
2026-05-04 23:36 49.50273 1.42202 18823 ft 413 kts 153°
2026-05-04 23:36 49.47729 1.44075 18214 ft 409 kts 153°
2026-05-04 23:36 49.45196 1.45939 17437 ft 408 kts 153°
2026-05-04 23:36 49.42637 1.47821 16734 ft 405 kts 153°
2026-05-04 23:37 49.40099 1.49685 16056 ft 402 kts 153°
2026-05-04 23:37 49.37605 1.51513 15100 ft 406 kts 153°
2026-05-04 23:37 49.35048 1.53386 14231 ft 405 kts 153°
2026-05-04 23:37 49.32585 1.55246 13916 ft 390 kts 149°
2026-05-04 23:38 49.30587 1.57905 13638 ft 373 kts 125°
2026-05-04 23:38 49.29574 1.61395 13411 ft 358 kts 100°
2026-05-04 23:38 49.29433 1.65119 13050 ft 349 kts 91°
2026-05-04 23:38 49.29390 1.68843 12487 ft 348 kts 92°
2026-05-04 23:39 49.29292 1.72487 11936 ft 346 kts 94°
2026-05-04 23:39 49.28801 1.76047 11372 ft 343 kts 115°
2026-05-04 23:39 49.27405 1.78916 10899 ft 340 kts 134°
2026-05-04 23:39 49.25675 1.81383 10348 ft 338 kts 137°
2026-05-04 23:40 49.23925 1.83782 9793 ft 337 kts 136°
2026-05-04 23:40 49.22220 1.86156 9260 ft 334 kts 136°
2026-05-04 23:40 49.20520 1.88571 8748 ft 330 kts 135°
2026-05-04 23:40 49.18867 1.90952 8381 ft 322 kts 135°
2026-05-04 23:41 49.17275 1.93258 8014 ft 315 kts 135°
2026-05-04 23:41 49.15700 1.95548 7649 ft 308 kts 134°
2026-05-04 23:41 49.14175 1.97770 7257 ft 304 kts 134°
2026-05-04 23:41 49.12656 1.99982 6905 ft 298 kts 135°
2026-05-04 23:42 49.11196 2.02108 6532 ft 287 kts 135°
2026-05-04 23:42 49.09778 2.04171 6110 ft 271 kts 135°
2026-05-04 23:42 49.08467 2.06077 5758 ft 258 kts 135°
2026-05-04 23:42 49.07173 2.07958 5397 ft 254 kts 134°
2026-05-04 23:43 49.05915 2.09789 5067 ft 251 kts 134°
2026-05-04 23:43 49.04647 2.11632 4721 ft 250 kts 134°
2026-05-04 23:43 49.03418 2.13414 4385 ft 241 kts 134°
2026-05-04 23:43 49.02226 2.15140 4076 ft 229 kts 134°
2026-05-04 23:44 49.01174 2.16794 3954 ft 207 kts 118°
2026-05-04 23:44 49.00736 2.18763 3952 ft 192 kts 94°
2026-05-04 23:44 49.00713 2.20782 3968 ft 193 kts 84°
2026-05-04 23:44 49.00864 2.22823 3972 ft 193 kts 82°
2026-05-04 23:45 49.01025 2.24837 3863 ft 194 kts 83°
2026-05-04 23:45 49.01163 2.26881 3626 ft 193 kts 84°
2026-05-04 23:45 49.01277 2.28925 3369 ft 192 kts 84°
2026-05-04 23:45 49.01378 2.30929 3115 ft 191 kts 84°
2026-05-04 23:46 49.01474 2.32950 2861 ft 190 kts 84°
2026-05-04 23:46 49.01569 2.34926 2614 ft 189 kts 84°
2026-05-04 23:46 49.01667 2.36924 2363 ft 188 kts 84°
2026-05-04 23:46 49.01765 2.38883 2119 ft 187 kts 84°
2026-05-04 23:47 49.01864 2.40830 1959 ft 179 kts 84°
2026-05-04 23:47 49.01957 2.42655 1684 ft 168 kts 83°
2026-05-04 23:47 49.02044 2.44343 1451 ft 157 kts 84°
2026-05-04 23:47 49.02131 2.45997 1235 ft 156 kts 83°
2026-05-04 23:48 49.02219 2.47663 1033 ft 157 kts 84°
2026-05-04 23:48 49.02303 2.49253 817 ft 146 kts 84°
2026-05-04 23:48 49.02374 2.50731 632 ft 134 kts 84°
2026-05-04 23:48 49.02450 2.52119 486 ft 132 kts 84°
2026-05-04 23:49 49.02527 2.53471 389 ft 118 kts 84°
2026-05-04 23:49 49.02574 2.54372 386 ft 39 kts 87°
2026-05-04 23:49 49.02546 2.54555 385 ft 20 kts 112°
2026-05-04 23:49 49.02487 2.54861 384 ft 30 kts 106°
2026-05-04 23:50 49.02449 2.55076 385 ft 16 kts 105°
2026-05-04 23:50 49.02446 2.55254 385 ft 18 kts 84°
2026-05-04 23:50 49.02455 2.55446 387 ft 17 kts 85°
2026-05-04 23:50 49.02443 2.55577 388 ft 11 kts 131°
2026-05-04 23:51 49.02355 2.55618 386 ft 15 kts 174°
2026-05-04 23:51 49.02240 2.55632 385 ft 17 kts 175°
2026-05-04 23:51 49.02111 2.55650 383 ft 15 kts 174°
2026-05-04 23:51 49.02071 2.55617 382 ft 9 kts 246°
2026-05-04 23:52 49.02059 2.55468 381 ft 18 kts 265°
2026-05-04 23:52 49.02049 2.55237 380 ft 25 kts 265°
2026-05-04 23:52 49.02032 2.54939 378 ft 31 kts 264°
2026-05-04 23:52 49.02011 2.54582 377 ft 34 kts 264°
2026-05-04 23:53 49.01997 2.54293 375 ft 18 kts 266°
2026-05-04 23:53 49.01948 2.54139 374 ft 17 kts 203°
2026-05-04 23:53 49.01830 2.54147 372 ft 12 kts 153°
2026-05-04 23:53 49.01805 2.54273 371 ft 8 kts 105°
2026-05-04 23:54 49.01767 2.54293 370 ft 7 kts 171°
2026-05-04 23:54 49.01692 2.54294 368 ft 12 kts 178°
2026-05-04 23:54 49.01645 2.54303 366 ft 0 kts 170°